Location: Brede
(50.9167°N, 0.6000°E)
Time: 21:45:02
(UTC+00:00)

Altair - Pass Details

Date: 02 August 2021
Orbit: 1501 x 1682 km, 47.2° (Epoch: 22 September)

Event Time Altitude Azimuth Distance (km) Brightness Sun altitude
Exits shadow 03:34:12 - 255° (WSW) 4,277 9.3 -7.4°
Reaches altitude 10° 03:35:57 10° 254° (WSW) 3,712 9.0 -7.2°
Maximum altitude 03:45:12 70° 173° (S) 1,588 7.5 -6.1°
Drops below altitude 10° 03:54:17 10° 92° (E) 3,654 10.4 -4.9°
Sets 03:57:18 0° 91° (E) 4,638 11.0 -4.5°
